Overview Statistics Trail Chart Weather Telemetry Raw packets
 

This is the latest recevied weather packets stored in our database for station/object KU4DD. If no packets are shown the sender has not sent any weather packets the latest 10 day(s).

<< 1 2 3 4 5 >>
Time Temp. Humidity Pressure Rain* Wind** Luminosity Snow
1788606622 23.33° C 95% 1011.9 hPa 0 mm - 18 W/m² -
1788606303 23.33° C 94% 1011.9 hPa 0 mm - 12 W/m² -
1788602298 22.78° C 93% 1011.2 hPa 0 mm - 0 W/m² -
1788601972 22.78° C 92% 1011.2 hPa 0 mm - 0 W/m² -
1788601341 22.78° C 92% 1011.2 hPa 0 mm - 0 W/m² -
1788600719 23.33° C 91% 1011.2 hPa 0 mm - 0 W/m² -
1788600104 23.33° C 91% 1011.2 hPa 0 mm - 0 W/m² -
1788596399 22.78° C 92% 1011.9 hPa 0 mm - 0 W/m² -
1788596079 22.78° C 91% 1011.9 hPa 0 mm - 0 W/m² -
1788595461 22.78° C 91% 1011.9 hPa 0 mm - 0 W/m² -
1788593604 23.33° C 90% 1012.2 hPa 0 mm - 0 W/m² -
1788591743 23.33° C 90% 1012.5 hPa 0 mm - 0 W/m² -
1788589888 23.33° C 88% 1013.2 hPa 0 mm - 0 W/m² -
1788589567 23.89° C 88% 1013.2 hPa 0 mm - 0 W/m² -
1788586790 23.89° C 86% 1013.5 hPa 0 mm - 0 W/m² -
1788584943 24.44° C 86% 1014.2 hPa 0 mm - 0 W/m² -
1788584623 24.44° C 86% 1014.2 hPa 0 mm - 0 W/m² -
1788583076 24.44° C 85% 1014.2 hPa 0 mm - 0 W/m² -
1788581830 24.44° C 85% 1014.9 hPa 0 mm - 0 W/m² -
1788580891 24.44° C 84% 1014.9 hPa 0 mm - 0 W/m² -
1788579954 24.44° C 83% 1014.9 hPa 0 mm - 0 W/m² -
1788577488 25.56° C 80% 1015.9 hPa 0 mm - 0 W/m² -
1788576559 26.11° C 77% 1016.3 hPa 0 mm - 0 W/m² -
1788575938 26.11° C 75% 1015.9 hPa 0 mm - 0 W/m² -
1788572859 30.56° C 72% 1013.9 hPa 0 mm - 0 W/m² -

* Rain latest hour (hover to see other rain measurements)
** Current wind speed in m/s (hover to see current wind gust speed)